Weather History for Hayward, WI

Change the Weather History Date:

Tuesday, September 25, 2012

  Actual Average Record
Temperature  
Mean Temperature 48 °F -  
Max Temperature 61 °F 68 °F 75 °F (1998)
Min Temperature 33 °F 34 °F 24 °F (2001)
Degree Days  
Heating Degree Days 18    
Moisture  
Dew Point 35 °F    
Average Humidity 68    
Maximum Humidity 93    
Minimum Humidity 35    
Precipitation  
Precipitation 0.00 in - - ()
Sea Level Pressure  
Sea Level Pressure 29.92 in    
Wind  
Wind Speed 3 mph (NNE)    
Max Wind Speed 6 mph    
Max Gust Speed -    
Visibility 10 miles    
Events      
Averages and records for this station are not official NWS values.
T = Trace of Precipitation, MM = Missing Value Source: NWS Daily Summary

Daily Weather History Graph

Daily Weather History Graph

Search for Another Location

Airport:

Trip Planner

Search our weather history database for the weather conditions in past years. The results will help you decide how hot, cold, wet, or windy it might be!

Date:

Astronomy

Sep. 25, 2012 Rise Set
Actual Time 6:57 AM CDT 6:56 PM CDT
Civil Twilight 6:27 AM CDT 7:26 PM CDT
Nautical Twilight 5:52 AM CDT 8:01 PM CDT
Astronomical Twilight 5:16 AM CDT 8:36 PM CDT
Moon 4:32 PM CDT (9/25) 2:05 AM CDT (9/25)
Length of Visible Light 12h 58m
Length of Day
11h 59m
Waxing Gibbous, 80% of the Moon is Illuminated
Sep 25
Waxing Gibbous
Sep 29
Full
Oct 8
Last Quarter
Oct 15
New
Oct 21
First Quarter

Hourly Weather History & Observations

Time (CDT) Temp. Windchill Dew Point Humidity Pressure Visibility Wind Dir Wind Speed Gust Speed Precip Events Conditions
12:53 AM 51.1 °F - 37.9 °F 61% 29.83 in 10.0 mi ENE 5.8 mph - N/A   Scattered Clouds
1:53 AM 46.9 °F - 37.9 °F 71% 29.84 in 10.0 mi Calm Calm - N/A   Clear
2:53 AM 36.0 °F - 33.1 °F 89% 29.86 in 10.0 mi Calm Calm - N/A   Clear
3:53 AM 36.0 °F - 33.1 °F 89% 29.86 in 10.0 mi Calm Calm - N/A   Clear
4:53 AM 35.1 °F - 33.1 °F 92% 29.87 in 10.0 mi Calm Calm - N/A   Clear
5:53 AM 37.0 °F 33.3 °F 35.1 °F 93% 29.88 in 10.0 mi NNE 4.6 mph - N/A   Clear
6:53 AM 37.9 °F 34.4 °F 36.0 °F 93% 29.89 in 10.0 mi NNE 4.6 mph - N/A   Clear
7:53 AM 39.0 °F 36.8 °F 36.0 °F 89% 29.91 in 10.0 mi NE 3.5 mph - N/A   Clear
8:53 AM 46.9 °F - 39.9 °F 77% 29.93 in 10.0 mi Calm Calm - N/A   Clear
9:53 AM 52.0 °F - 42.1 °F 69% 29.94 in 10.0 mi Variable 3.5 mph - N/A   Clear
10:53 AM 54.0 °F - 37.9 °F 55% 29.95 in 10.0 mi Calm Calm - N/A   Partly Cloudy
11:53 AM 57.0 °F - 35.1 °F 44% 29.94 in 10.0 mi Variable 4.6 mph - N/A   Scattered Clouds
12:53 PM 57.0 °F - 34.0 °F 42% 29.94 in 10.0 mi Variable 5.8 mph - N/A   Clear
2:53 PM 60.1 °F - 33.1 °F 36% 29.92 in 10.0 mi Variable 5.8 mph - N/A   Clear
3:53 PM 59.0 °F - 33.1 °F 38% 29.91 in 10.0 mi Variable 4.6 mph - N/A   Clear
4:53 PM 60.1 °F - 32.0 °F 35% 29.92 in 10.0 mi North 4.6 mph - N/A   Clear
5:53 PM 57.0 °F - 33.1 °F 40% 29.93 in 10.0 mi Calm Calm - N/A   Clear
6:53 PM 51.1 °F - 34.0 °F 52% 29.95 in 10.0 mi NNE 3.5 mph - N/A   Clear
7:53 PM 43.0 °F - 35.1 °F 74% 29.98 in 10.0 mi Calm Calm - N/A   Clear
8:53 PM 37.0 °F - 33.1 °F 86% 29.99 in 10.0 mi Calm Calm - N/A   Clear
9:53 PM 35.1 °F - 30.0 °F 82% 30.01 in 10.0 mi Calm Calm - N/A   Clear
10:53 PM 33.1 °F - 30.9 °F 92% 30.02 in 10.0 mi Calm Calm - N/A   Clear